Regional Weather Roundup
Issued by NWS Green Bay, WI

Home | Current Version | Previous Version | Graphics & Text | Print | Product List | Glossary Off
Versions: 1 2 3 4 5 6 7 8 9 10 11 12 13 14 15 16 17 18 19 20 21 22 23 24 25 26 27 28 29 30 31 32 33 34 35 36 37 38 39 40 41 42 43 44 45 46 47 48 49 50

000
ASUS43 KGRB 302300
RWRGRB

NORTH-CENTRAL AND NORTHEAST WISCONSIN REGIONAL WEATHER ROUNDUP
NATIONAL WEATHER SERVICE GREEN BAY WI
600 PM CDT SAT MAY 30 2015

WIZ005-009-010>012-018-019-310000-
NORTH CENTRAL WISCONSIN

CITY           SKY/WX    TMP DP  RH WIND       PRES   REMARKS
IRONWOOD       SUNNY     50  30  46 N9        30.28S
MANITOWISH WTR NOT AVBL
ARBOR VITAE    NOT AVBL
EAGLE RIVER    NOT AVBL
LAND O LAKES   NOT AVBL
RHINELANDER    SUNNY     53  28  38 N12G18    30.24S
PHILLIPS       NOT AVBL
ANTIGO         NOT AVBL
TOMAHAWK       NOT AVBL
MERRILL        NOT AVBL
$$

WIZ013-073-310000-
NORTHEAST WISCONSIN

CITY           SKY/WX    TMP DP  RH WIND       PRES   REMARKS
IRON MOUNTAIN  MOSUNNY   55  26  32 N14       30.23S
MARINETTE      CLOUDY    54  39  58 NE15      30.21S
$$

WIZ017-030-035>037-045-310000-
CENTRAL WISCONSIN

CITY           SKY/WX    TMP DP  RH WIND       PRES   REMARKS
MEDFORD        NOT AVBL
WAUSAU         MOSUNNY   59  38  45 N9G23     30.19S
MOSINEE        SUNNY     57  43  58 N10G17    30.21R
MARSHFIELD     MOSUNNY   58  40  51 NE12      30.19S
WISC RAPIDS    MOSUNNY   60  40  47 NE15      30.19F
STEVENS POINT  NOT AVBL
WAUPACA        NOT AVBL
SHAWANO        NOT AVBL
CLINTONVILLE   NOT AVBL
$$

WIZ038-039-048-051-310000-
FOX VALLEY

CITY           SKY/WX    TMP DP  RH WIND       PRES   REMARKS
NWS GREEN BAY  CLOUDY    54  45  71 NE17      30.20S
APPLETON       PTSUNNY   55  45  67 NE13      30.19S
OSHKOSH        CLOUDY    55  44  66 NE16      30.18R
FOND DU LAC    CLOUDY    54  46  74 NE21      30.18S
$$

WIZ022-050-052-310000-
EAST CENTRAL WISCONSIN

CITY           SKY/WX    TMP DP  RH WIND       PRES   REMARKS
STURGEON BAY   CLOUDY    48  34  57 NE15G21   30.24S
MANITOWOC      NOT AVBL
SHEBOYGAN      CLOUDY    51  42  71 NE18G24   30.17S
$$

LMZ563-521-522-541>543-310000-
LAKESHORE

STATION/POSITION TIME  TEMP    WIND        PRES    VSBY  WAVE
                       AIR SEA DIR/SP/G                  HT/PER
                 (UTC) (F)     (DEG/KT/KT) (MB)    (MI)  (FT/S)
SHEBOYGAN LKSHOR 2200   46      10/ 18/ 20 1022.3S
KEWAUNEE LKSHORE 2200   47      30/  8/ 12 1022.1R
ALGOMA MARINA    2209           50/  7/ 12   N/A
NORTHPORT PIER   2203   48     360/ 19/ 25 1023.4S
N MID LAKE BUOY  2150   41 37  320/ 14/ 16 1023.8R         3/ 4
SISTER BAY LKSHO 2218   49      20/ 16/ 25   N/A
CHAMBERS ISLAND  2200   49      20/ 20/ 22 1023.4S
MENOMINEE LKSHOR 2200   50      50/ 17/ 22 1023.7S
$$


USA.gov is the U.S. government's official web portal to all federal, state and local government web resources and services.